Regional Weather Roundup
Issued by NWS

Home | Current Version | Previous Version | Text Only | Print | Product List | Glossary On
Versions: 1 2 3 4 5 6 7 8 9 10 11 12 13 14 15 16 17 18 19 20 21 22 23 24 25 26 27 28 29 30 31 32 33 34 35 36 37 38 39 40 41 42 43 44 45 46 47 48 49 50
000
ASUS46 KLOX 290112
RWRCA

SOUTHERN CALIFORNIA WEATHER ROUNDUP
NATIONAL WEATHER SERVICE OXNARD CALIFORNIA
500 PM PST FRI NOV 28 2014

NOTE: "FAIR" INDICATES FEW OR NO CLOUDS BELOW 12,000 FEET WITH NO
SIGNIFICANT WEATHER AND/OR OBSTRUCTIONS TO VISIBILITY.

  -  STATIONS PRECEEDED BY AN ASTERISK (*) ARE NOT NWS OR FAA
     STATIONS AND ARE NOT SUBJECT TO NWS AND FAA QUALITY CONTROL.

CAZ041-042-087-290200-
LA AND ORANGE COUNTY COASTAL AREAS


CITY           SKY/WX    TMP DP  RH WIND       PRES   REMARKS
L.A. DOWNTOWN  PTCLDY    69  45  41 VRB3      29.88S
L.A. AIRPORT   PTCLDY    66  52  60 W7        29.89F
LONG BEACH     CLEAR     69  55  60 S3        29.88S

CITY           SKY/WX    TMP DP  RH WIND       PRES   REMARKS
AVALON           N/A     61 N/A N/A MISG        N/A
FULLERTON      CLEAR     72  38  29 SW3       29.88R
*GETTY CENTER    N/A     68  34  28 SW5         N/A
HAWTHORNE      PTCLDY    70  51  51 W6        29.89S
*LEO CARRILLO    N/A     65  59  80 W6          N/A
*LOS ALAMITOS  CLEAR     65  57  75 S3        29.89R
*REDONDO BEACH   N/A     66  61  83 CALM      29.88S
SANTA ANA      CLEAR     69  53  56 SW6       29.88S
STA MONICA APT CLEAR     67  52  58 SW3       29.89F
TORRANCE       PTCLDY    68  61  77 W12       29.89

$$

CAZ547-548-048-290200-
LA COUNTY VALLEYS AND INLAND EMPIRE


CITY           SKY/WX    TMP DP  RH WIND       PRES   REMARKS
BURBANK        PTCLDY    73  32  22 S5        29.89S
VAN NUYS       PTCLDY    73  27  18 SE5       29.89S

CITY           SKY/WX    TMP DP  RH WIND       PRES   REMARKS
CORONA AIRPORT PTCLDY    71  37  28 CALM      29.89R
*CHATSWORTH      N/A     73  43  34 CALM      29.86S
CHINO          PTCLDY    69  36  29 W9        29.90S
MARCH AFB      PTCLDY    69  24  18 W5        29.91F
*NORTHRIDGE      N/A     72  23  16 CALM        N/A
ONTARIO        PTCLDY    74  31  20 W5        29.90S
*PASADENA        N/A     73  39  29 CALM        N/A
POMONA         CLEAR     70  32  24 CALM      29.93S
RIVERSIDE      PTCLDY    76  30  18 W5        29.89S
SAN BERNARDINO CLEAR    N/A N/A N/A CALM      29.90
*SAN GABRIEL     N/A     77  37  23 CALM      29.84S
*SAN RAFAEL HI   N/A     70  23  17 E5          N/A
*SAUGUS          N/A     73  27  18 SW10        N/A
*WHITEMAN AP   NOT AVBL
*WHITTIER HILL   N/A     70  29  22 S5          N/A
*WOODLAND HILL   N/A     66  30  26 S3          N/A

$$

CAZ054-055-290200-
LA AND SAN BERNARDINO COUNTY MOUNTAINS


CITY           SKY/WX    TMP DP  RH WIND       PRES   REMARKS
*BIG BEAR AIRP PTCLDY    50   1  13 SW5       30.14S
MT WILSON NWS    N/A     59   7  12 MISG        N/A
SANDBERG       CLEAR     64  12  13 VRB6      30.04F
*WARM SPRINGS    N/A     62  20  20 SW7         N/A

$$

CAZ028-029-059-060-099-290200-
ANTELOPE VALLEY AND SURROUNDING AREAS


CITY           SKY/WX    TMP DP  RH WIND       PRES   REMARKS
LANCASTER      PTCLDY    64  19  17 W9        29.93S
PALMDALE       PTCLDY    70  18  13 SW12      29.94S
*POPPY PARK      N/A     61  20  20 W5G20       N/A

CITY           SKY/WX    TMP DP  RH WIND       PRES   REMARKS
29 PALMS       CLEAR     63  17  17 S9        29.98F
BARSTOW/DAGGET CLEAR     65  15  14 NE3       29.90F
BISHOP         PTCLDY    50  14  23 CALM      29.90F
CHINA LAKE     PTCLDY    59  15  18 NW5       29.88F
EDWARDS AFB    CLEAR     67  17  14 W7        29.90S
MOJAVE         FAIR      68   3   8 SW12      29.94F
NEEDLES        CLEAR     66  20  17 CALM      29.89F
VICTORVILLE    PTCLDY    70  16  12 SW7       29.95R

$$

CAZ039-040-290200-
VENTURA AND SANTA BARBARA COUNTY COAST


CITY           SKY/WX    TMP DP  RH WIND       PRES   REMARKS
CAMARILLO      CLEAR     66  52  60 CALM      29.89S
NWS OXNARD       N/A     65  55  69 CALM      29.88S
OXNARD AIRPORT CLEAR     65  58  78 CALM      29.89S
*POINT MUGU    CLEAR     64  57  78 CALM      29.90S
SBA APT/GOLETA CLEAR     64  58  80 CALM      29.88S
*SANTA BARBARA   N/A     69  57  65 CALM      29.96S
*VENTURA         N/A     67  54  61 CALM      29.93S

$$

CAZ044-045-290200-
VENTURA COUNTY VALLEYS


CITY           SKY/WX    TMP DP  RH WIND       PRES   REMARKS
*SIMI VALLEY     N/A     69  47  45 CALM      29.86S
*OJAI            N/A     63  37  38 CALM      29.86R
*FILLMORE        N/A     68  43  40 CALM      29.80R

$$

CAZ053-290200-
VENTURA COUNTY MOUNTAINS


CITY           SKY/WX    TMP DP  RH WIND       PRES   REMARKS
*LOCKWOOD VLY    N/A     59  10  14 MISG        N/A
*ROSE VALLEY     N/A     63  27  25 MISG        N/A

$$

CAZ034-035-036-290200-
CENTRAL COAST AND SANTA YNEZ VALLEY


CITY           SKY/WX    TMP DP  RH WIND       PRES   REMARKS
SAN LUIS OBISP CLEAR     59  52  77 NW8       29.91S
SANTA MARIA    CLEAR     60  50  69 NW7       29.92S

CITY           SKY/WX    TMP DP  RH WIND       PRES   REMARKS
*CAL POLY SLO    N/A     68  41  37 SW1         N/A
*LOMPOC        CLEAR     63  46  55 CALM      29.91F
*PISMO BEACH     N/A     60  57  88 CALM      29.91F
*SANTA YNEZ    FAIR      64  39  39 SW3       29.91S

$$

CAZ037-038-051-290200-
SAN LUIS OBISPO COUNTY INTERIOR AND CUYAMA VALLEY


CITY           SKY/WX    TMP DP  RH WIND       PRES   REMARKS
*CUYAMA          N/A     67  -2   6 SW3       29.90S
PASO ROBLES    CLEAR     68  32  26 S9        29.90S

$$

CAZ032-033-061-290200-
SOUTHERN DESERTS


CITY           SKY/WX    TMP DP  RH WIND       PRES   REMARKS
BLYTHE         CLEAR     71  31  22 S3        29.87F
IMPERIAL       CLEAR     72  32  23 CALM      29.85S
PALM SPRINGS   PTCLDY    75  31  19 CALM      29.89R
THERMAL        PTCLDY    63  32  31 CALM      29.84F

$$

ELSEWHERE ACROSS THE WESTERN UNITED STATES AND MEXICO


CITY           SKY/WX    TMP DP  RH WIND       PRES   REMARKS
DENVER, CO     CLOUDY    59  13  16 E5        29.82S
GRAND CANYON,  PTCLDY    46   6  19 SW6       30.12S
HONOLULU, HI   MOSUNNY   81  61  50 NE20G30   29.98S
KAHULUI, MAUI  LGT RAIN  75  64  69 NE17G26   30.00F
LAKE TAHOE, CA MOCLDY    51   2  13 SW15G23   29.94F
LAS VEGAS, NV  CLEAR     62  23  22 S5        29.87F
MAMMOTH LAKES, FAIR      52   3  14 W26G36    30.03F
MEXICO CITY, M CLEAR     63  39  42 SE10      30.28R
PHOENIX, AZ    CLEAR     75  29  18 CALM      29.89S
PORTLAND, OR   LGT RAIN  55  52  89 SW14G26   29.46R
RENO, NV       PTCLDY    59  -6   7 W22G30    29.85R
SALT LAKE CITY PTCLDY    58  15  18 S14       29.82F
SAN DIEGO, CA  CLEAR     69  58  67 S3        29.90F
SAN FRANCISCO, PTCLDY    60  52  74 SW8       29.88F
SAN JOSE, CA   PTCLDY    57  49  74 NW7       29.89F
SEATTLE, WA    LGT RAIN  38  36  92 NE9       29.49S FOG     WCI  31
TIJUANA, MEX   CLEAR     73  23  15 NW7       29.92S

$$

STATION/POSITION TIME  TEMP    WIND        PRES    VSBY  WAVE
                       AIR SEA DIR/SP/G                  HT/PER
                 (UTC) (F)     (DEG/KT/KT) (MB)    (MI)  (FT/S)
POINT ARGUELLO B NOT AVBL
WEST SANTA BARBA 0100   64 64  310/ 14/ 17 1011.3F         7/14
POINT CONCEPTION NOT AVBL
EAST SANTA BARBA 0100   65 67  260/  4     1012.1
SANTA MONICA BAY 0100   61 66  330/  4/  6 1012.4F         4/13



USA.gov is the U.S. government's official web portal to all federal, state and local government web resources and services.